Terminal Aerodrome Forecast
Issued by NWS Green Bay, WI

Home | Current Version | Previous Version | Text Only | Print | Product List | Glossary Off
Versions: 1 2 3 4 5 6 7 8 9 10 11 12 13 14 15 16 17 18 19 20 21 22 23 24 25 26

000
FTUS43 KGRB 251100
TAFGRB
TAF
KGRB 251125Z 2512/2612 34005KT P6SM BKN150
     FM251800 36005KT P6SM SCT040 BKN090
     FM252200 04010KT P6SM SCT040 BKN080
     FM260800 01008KT P6SM SCT035 BKN150=

USA.gov is the U.S. government's official web portal to all federal, state and local government web resources and services.